Location: Newark
(37.8333°N, 119.5000°W)
Time: 05:12:43
(UTC+00:00)

Tiros 1 despin weight - Pass Details

Date: 23 August 2019
Orbit: 594 x 642 km, 48.2° (Epoch: 19 September)

Event Time Altitude Azimuth Distance (km) Brightness Sun altitude
Rises 05:16:04 0° 191° (S) 2,812 - -27.4°
Reaches altitude 10° 05:19:03 10° 170° (S) 1,918 - -27.8°
Maximum altitude 05:21:47 16° 131° (SE) 1,559 - -28.2°
Drops below altitude 10° 05:24:31 10° 93° (E) 1,935 - -28.6°
Sets 05:27:33 0° 72° (ENE) 2,850 - -29.0°
